Mexico City Airport, Mexico

9:38 PM CDT on June 22, 2017 (GMT -0500)
Lic Benito Juarez International

Weather History for MMMX - June, 2011

Change the Weather History Date:

Thursday, June 23, 2011

  Actual Average Record
Temperature  
Mean Temperature 68 °F -  
Max Temperature 78 °F 73 °F 80 °F (1998)
Min Temperature 57 °F 53 °F 48 °F (2002)
Cooling Degree Days 2    
Growing Degree Days 18 (Base 50)    
Moisture  
Dew Point 54 °F    
Average Humidity 74    
Maximum Humidity 94    
Minimum Humidity 41    
Precipitation  
Precipitation 3.20 in - - ()
Sea Level Pressure  
Sea Level Pressure 30.21 in    
Wind  
Wind Speed 5 mph ()    
Max Wind Speed 23 mph    
Max Gust Speed 29 mph    
Visibility 8.6 miles    
Events Rain , Thunderstorm    
Averages and records for this station are not official NWS values.
T = Trace of Precipitation, MM = Missing Value Source: Averaged Metar Reports

Daily Weather History Graph

Daily Weather History Graph

Search for Another Location

Airport or City:

Trip Planner

Search our weather history database for the weather conditions in past years. The results will help you decide how hot, cold, wet, or windy it might be!

Date:

Astronomy

Jun. 23, 2011 Rise Set
Actual Time 6:59 AM CDT 8:17 PM CDT
Civil Twilight 6:35 AM CDT 8:42 PM CDT
Nautical Twilight 6:05 AM CDT 9:11 PM CDT
Astronomical Twilight 5:35 AM CDT 9:41 PM CDT
Moon 1:13 AM CDT 1:49 PM CDT
Length of Visible Light 14h 07m
Length of Day
13h 18m
Waning Gibbous, 48% of the Moon is Illuminated
Jun 23
Waning Gibbous
Jul 1
New
Jul 8
First Quarter
Jul 15
Full
Jul 23
Last Quarter

Hourly Weather History & Observations

Time (CDT) Temp. Dew Point Humidity Pressure Visibility Wind Dir Wind Speed Gust Speed Precip Events Conditions
12:45 AM 64.4 °F 55.4 °F 73% 29.71 in 15.0 mi West 4.6 mph - N/A   Mostly Cloudy
1:45 AM 64.4 °F 55.4 °F 73% 30.30 in 10.0 mi Calm Calm - N/A   Mostly Cloudy
2:01 AM 64.4 °F 53.6 °F 68% 30.29 in 6.0 mi South 13.8 mph 27.6 mph N/A Rain , Thunderstorm Thunderstorms and Rain
2:09 AM 57.2 °F 53.6 °F 88% 30.29 in 4.0 mi SSW 23.0 mph - N/A Rain , Thunderstorm Thunderstorms and Rain
2:41 AM 57.2 °F 53.6 °F 88% 30.30 in 8.0 mi SSE 3.5 mph - N/A Rain , Thunderstorm Light Thunderstorms and Rain
2:46 AM 57.2 °F 53.6 °F 88% 30.30 in 8.0 mi SE 5.8 mph - N/A Rain Light Rain
3:48 AM 57.2 °F 53.6 °F 88% 29.75 in 8.0 mi SE 8.1 mph - N/A Rain Light Rain
4:46 AM 57.2 °F 53.6 °F 88% 30.30 in 8.0 mi SE 8.1 mph - N/A Rain Light Rain
5:48 AM 57.2 °F 53.6 °F 88% 30.30 in 6.0 mi SSE 4.6 mph - N/A Rain Light Rain
6:45 AM 57.2 °F 53.6 °F 88% 29.78 in 8.0 mi SE 3.5 mph - N/A Rain Light Rain
7:24 AM 57.2 °F 53.6 °F 88% 30.30 in 8.0 mi SSE 3.5 mph - N/A   Overcast
7:45 AM 57.2 °F 53.6 °F 88% 30.30 in 8.0 mi East 5.8 mph - N/A   Overcast
8:22 AM 57.2 °F 53.6 °F 88% 30.30 in 10.0 mi Calm Calm - N/A   Overcast
8:44 AM 59.0 °F 53.6 °F 82% 30.30 in 10.0 mi Calm Calm - N/A   Mostly Cloudy
9:20 AM 60.8 °F 53.6 °F 77% 30.30 in 10.0 mi Calm Calm - N/A   Mostly Cloudy
9:46 AM 60.8 °F 53.6 °F 77% 29.79 in 12.0 mi Calm Calm - N/A   Mostly Cloudy
10:10 AM 64.4 °F 53.6 °F 68% 30.30 in 12.0 mi WNW 3.5 mph - N/A   Scattered Clouds
10:20 AM 64.4 °F 53.6 °F 68% 30.30 in 12.0 mi Calm Calm - N/A   Scattered Clouds
10:37 AM 68.0 °F 53.6 °F 60% 30.30 in 12.0 mi Calm Calm - N/A   Scattered Clouds
10:47 AM 68.0 °F 53.6 °F 60% 30.30 in 12.0 mi Calm Calm - N/A   Scattered Clouds
11:42 AM 71.6 °F 50.0 °F 46% 30.30 in 12.0 mi ENE 3.5 mph - N/A   Scattered Clouds
11:45 AM 71.6 °F 50.0 °F 46% 30.30 in 12.0 mi ENE 3.5 mph - N/A   Scattered Clouds
12:41 PM 75.2 °F 50.0 °F 41% 30.28 in 12.0 mi ENE 3.5 mph - N/A   Mostly Cloudy
12:45 PM 75.2 °F 50.0 °F 41% 29.69 in 12.0 mi East 4.6 mph - N/A   Mostly Cloudy
1:47 PM 75.2 °F 50.0 °F 41% 30.26 in 7.0 mi ENE 4.6 mph - N/A   Overcast
2:17 PM 71.6 °F 53.6 °F 53% 30.28 in 6.0 mi SSE 16.1 mph - N/A Rain Light Rain
2:22 PM 64.4 °F 57.2 °F 77% 30.29 in 6.0 mi South 21.9 mph - N/A Rain Rain
2:32 PM 60.8 °F 55.4 °F 82% 30.29 in 3.0 mi SSE 17.3 mph 28.8 mph N/A Rain Heavy Rain
2:47 PM 59.0 °F 55.4 °F 88% 30.30 in 3.0 mi South 9.2 mph - N/A Rain , Thunderstorm Heavy Thunderstorms and Rain
2:53 PM 59.0 °F 55.4 °F 88% 30.30 in 3.0 mi SSW 9.2 mph - N/A Rain , Thunderstorm Heavy Thunderstorms and Rain
3:04 PM 59.0 °F 57.2 °F 94% 30.28 in 4.0 mi SW 11.5 mph - N/A Rain , Thunderstorm Thunderstorms and Rain
3:14 PM 60.8 °F 55.4 °F 82% 30.28 in 5.0 mi WSW 10.4 mph - N/A Rain , Thunderstorm Light Thunderstorms and Rain
3:46 PM 60.8 °F 55.4 °F 82% 29.88 in 5.0 mi West 5.8 mph - N/A Rain Light Rain
4:48 PM 78.8 °F 55.4 °F 44% 30.25 in 8.0 mi WSW 8.1 mph - N/A Rain Rain
4:50 PM 60.8 °F 55.4 °F 82% 30.25 in 8.0 mi WSW 8.1 mph - N/A Rain Rain
4:51 PM 60.8 °F 55.4 °F 82% 30.25 in 8.0 mi WSW 8.1 mph - N/A   Overcast
4:54 PM 60.8 °F 55.4 °F 82% 30.25 in 8.0 mi WSW 8.1 mph - N/A Rain Rain
5:03 PM 60.8 °F 55.4 °F 82% 30.25 in 8.0 mi West 4.6 mph - N/A Rain Light Rain
5:47 PM 62.6 °F 55.4 °F 77% 30.23 in 10.0 mi Calm Calm - N/A   Overcast
6:47 PM 62.6 °F 57.2 °F 82% 30.25 in 10.0 mi NE 3.5 mph - N/A   Overcast
6:49 PM 62.6 °F 55.4 °F 77% 30.25 in 10.0 mi NE 3.5 mph - N/A   Overcast
7:45 PM 64.4 °F 53.6 °F 68% 30.26 in 10.0 mi South 3.5 mph - N/A   Overcast
8:42 PM 64.4 °F 55.4 °F 73% 30.28 in 10.0 mi South 3.5 mph - N/A   Mostly Cloudy
9:51 PM 64.4 °F 55.4 °F 73% 29.82 in 10.0 mi Calm Calm - N/A   Mostly Cloudy
10:50 PM 64.4 °F 53.6 °F 68% 30.30 in 10.0 mi Calm Calm - N/A   Mostly Cloudy
11:46 PM 62.6 °F 55.4 °F 77% 30.32 in 7.0 mi Calm Calm - N/A Rain Light Rain